Regional Weather Roundup
Issued by NWS

Home | Current Version | Previous Version | Text Only | Print | Product List | Glossary Off
Versions: 1 2 3 4 5 6 7 8 9 10 11 12 13 14 15 16 17 18 19 20 21 22 23 24 25 26 27 28 29 30 31 32 33 34 35 36 37 38 39 40 41 42 43 44 45 46 47 48 49 50

000
ASUS45 KTFX 222004
RWRMT
MONTANA HOURLY WEATHER ROUNDUP
NATIONAL WEATHER SERVICE GREAT FALLS MT
204 PM MDT TUE JUL 22 2014

NOTE: "FAIR" INDICATES FEW OR NO CLOUDS BELOW 12000 FEET WITH NO
SIGNIFICANT WEATHER AND/OR OBSTRUCTIONS TO VISIBILITY.

* THESE STATIONS ARE NOT UNDER NWS QUALITY CONTROL. THEY DO NOT
   REPORT WEATHER SUCH AS PRECIPITATION OR FOG.

MTZ001>007-043-222100-
WEST OF THE DIVIDE
CITY           SKY/WX    TMP DP  RH WIND       PRES   REMARKS
KALISPELL      CLOUDY    70  48  46 E5        30.17S
MISSOULA       SUNNY     84  45  26 SE7       30.12F
BUTTE          SUNNY     79  43  28 S13       30.26F
MULLAN PASS    PTSUNNY   64  48  56 VRB3      30.29R
* ESSEX        N/A       64  51  63 NW4G9      N/A
* LINCOLN      N/A       78  54  44 NW3        N/A
* LOOKOUT PASS N/A       66  51  59 SE2        N/A
* POLSON       N/A       72  52  49 N4G9       N/A
* RONAN APT    PTSUNNY   72  48  43 N13        N/A
* SEELEY LAKE  N/A       79  46  31 NE4        N/A
* THOMP F APT  PTSUNNY   76  42  30 S7G17      N/A
* YAAK HILL    N/A       64  56  75 S2         N/A
$$

MTZ008-052>055-222100-
SOUTHWEST MONTANA
CITY           SKY/WX    TMP DP  RH WIND       PRES   REMARKS
BOZEMAN        SUNNY     84  48  29 VRB5      30.21F
DILLON         SUNNY     82  45  27 VRB5      30.22F
W YELLOWSTONE  SUNNY     75  41  30 S14G20    30.39S
* THREE FORKS  PTCLDY    81  57  44 N/A        N/A   HI  81
* BOULDER HILL N/A       76  44  32 SW9G16     N/A
* MONIDA PASS  N/A       74  43  33 SE17G29    N/A
* RAYNOLDS PAS N/A       75  49  40 E9G24      N/A
* WHITEHALL    N/A       82  55  40 E5         N/A   HI  81
* WISE RIVER   N/A       76  52  43 SE9G15     N/A
$$

MTZ009>010-012-014-046-048-049-054-222100-
EAST SLOPES AND CENTRAL MONTANA
CITY           SKY/WX    TMP DP  RH WIND       PRES   REMARKS
CUT BANK       CLOUDY    72  55  55 S5        30.21R
GREAT FALLS    PTSUNNY   81  52  37 VRB5      30.18F
HELENA         SUNNY     82  54  38 NE6       30.16F
MALMSTROM AFB  PTSUNNY   77  52  42 VRB3      30.19F
* CONRAD       CLOUDY    72  61  68 N/A        N/A
* DEARBORN     N/A       80  51  36 W1         N/A
* EAST GLACIER N/A       68  41  38 W12G17     N/A
* MONARCH      N/A       75  33  22 SW3        N/A
* SAINT MARY   N/A       69  47  46 W3         N/A
* SWEET GRASS  N/A       77  49  37 S10G17     N/A
$$

MTZ011-013-016-021-035-040-045-047-050-051-222100-
NORTH CENTRAL MONTANA
CITY           SKY/WX    TMP DP  RH WIND       PRES   REMARKS
HAVRE          CLOUDY    82  55  40 S10       30.16S HI  81
LEWISTOWN      PTSUNNY   77  55  47 E9        30.24F
* CHESTER      N/A       82  49  32 S4G9       N/A
* DENTON       N/A       74  58  58 E8         N/A
* GEYSER       N/A       79  51  38 SE2G11     N/A
* JUDITH GAP   N/A       78  51  39 E2G7       N/A
* LOMA         N/A       78  52  40 N/A        N/A
$$

MTZ017>020-022>027-061-062-222100-
NORTHEAST MONTANA
CITY           SKY/WX    TMP DP  RH WIND       PRES   REMARKS
GLASGOW        PTCLDY    84  50  31 VRB3      30.17S
GLENDIVE       SUNNY     84  52  33 E6        30.18S
JORDAN         CLOUDY    82  61  49 E10       30.18S HI  83
SIDNEY         PTCLDY    86  59  40 NE8       30.19S HI  85
WOLF POINT     PTCLDY    84  50  31 N/A       30.18R
* BEAVER HILL  N/A       84  55  37 E13        N/A
* CIRCLE       N/A       82  59  46 NE2G7      N/A   HI  82
* LINDSAY DVD  N/A       81  56  42 NE2        N/A   HI  81
* NAVAJO       N/A       75  57  54 NE10       N/A
$$

MTZ028>042-056>058-222100-
SOUTHCENTRAL AND SOUTHEAST MONTANA
CITY           SKY/WX    TMP DP  RH WIND       PRES   REMARKS
BAKER          SUNNY     88  54  31 SE15G22   30.19F
BILLINGS       SUNNY     88  52  29 E9        30.19S
LIVINGSTON     SUNNY     90  45  21 W14       30.21S
MILES CITY     PTCLDY    90  57  33 VRB7      30.12F
* LAUREL APT   SUNNY     84  50  31 N/A        N/A
* ROUNDUP APT  PTCLDY    81  54  39 N8         N/A
* ALZADA       N/A       84  58  41 E6G12      N/A   HI  83
* HYSHAM       N/A       86  56  36 S1G8       N/A
* LAME DEER    N/A       86  53  32 SW4G12     N/A
* REED POINT   N/A       90  51  26 NE4        N/A
* ROSCOE HILL  N/A       78  47  34 N9         N/A
$$

REGIONAL REPORTS...DAKOTAS
CITY           SKY/WX    TMP DP  RH WIND       PRES   REMARKS
WILLISTON      PTCLDY    86  54  33 N/A       30.17S
DICKINSON      SUNNY     79  64  60 E7        30.21R
CROSBY         PTCLDY    75  63  66 E5        30.21S
TIOGA          PTSUNNY   77  57  50 NW8       30.23S
WATFORD CITY   SUNNY     82  57  43 E3        30.17S HI  82
BISMARCK       PTSUNNY   79  63  58 W8        30.21R
GRAND FORKS    SUNNY     75  57  54 N13G20    30.16R
FARGO          SUNNY     79  57  47 NW17G25   30.15R
BUFFALO SD     SUNNY     86  59  40 SE8       30.15S HI  85
RAPID CITY     SUNNY     84  63  49 SE12G17   30.23R HI  85
$$

REGIONAL REPORTS...WYOMING/IDAHO/WASHINGTON
CITY           SKY/WX    TMP DP  RH WIND       PRES   REMARKS
GILLETTE       SUNNY     91  54  28 S15G22    30.21F
SHERIDAN       SUNNY     90  57  33 VRB6      30.17S
CODY           PTCLDY    88  48  25 N9        30.24S
YELLOWSTONE LA SUNNY     73  39  29 N/A       30.50S
SALMON         PTCLDY    88  46  23 S13       30.09F
MULLAN PASS    PTSUNNY   64  48  56 VRB3      30.29S
SAND POINT     RAIN      61  57  87 E3        30.17R
SPOKANE        CLOUDY    70  54  57 NE9       30.13F

$$



USA.gov is the U.S. government's official web portal to all federal, state and local government web resources and services.